This demonstration page uses our WeatherBlox Daily Observations layout. Learn more.

Left ArrowRight Arrow

38.88101, -77.10428

Hourly Observations for May 20, 2020

Temp ( °F °C ) Dew Point ( °F °C ) Humidity (%) Winds ( mph kmh ) Pressure ( in mb ) Visibility ( mi km ) Precip ( " mm )
12:52 am 00:52 Cloudy 57 13.9 33 0.6 41 41 ENE 18 30 30.28 1026 10 16.0934 0 0
1:52 am 01:52 Cloudy 56 13.3 34 1.1 44 44 ENE 18 30 30.27 1025 10 16.0934 0 0
2:52 am 02:52 Cloudy 55 12.8 33 0.6 44 44 ENE 18 30 30.26 1025 10 16.0934 0 0
3:52 am 03:52 Cloudy 54 12.2 36 2.2 51 51 ENE 17 28 30.25 1025 10 16.0934 0 0
4:52 am 04:52 Cloudy 54 12.2 37 2.8 53 53 ENE 15 24 30.26 1025 10 16.0934 0 0
5:52 am 05:52 Cloudy 53 11.7 37 2.8 55 55 ENE 14 22 30.27 1025 10 16.0934 0 0
6:52 am 06:52 Mostly Cloudy 53 11.7 38 3.3 57 57 ENE 13 20 30.28 1025 10 16.0934 0 0
7:52 am 07:52 Cloudy 54 12.2 39 3.9 57 57 ENE 15 24 30.29 1026 10 16.0934 0 0
8:52 am 08:52 Cloudy with Light Rain 55 12.8 40 4.4 57 57 ENE 17 28 30.32 1027 10 16.0934 0.001 0.001
9:52 am 09:52 Cloudy 56 13.3 42 5.6 60 60 ENE 17 28 30.32 1027 10 16.0934 0 0
10:52 am 10:52 Cloudy 58 14.4 44 6.7 60 60 E 17 28 30.34 1028 10 16.0934 0 0
11:52 am 11:52 Cloudy 58 14.4 46 7.8 65 65 ENE 22 35 30.35 1028 10 16.0934 0 0
12:52 pm 12:52 Cloudy 59 15 46 7.8 62 62 ENE 17 28 30.35 1028 10 16.0934 0 0
1:52 pm 13:52 Cloudy 61 16.1 46 7.8 58 58 ENE 14 22 30.34 1027 10 16.0934 0 0
2:52 pm 14:52 Mostly Cloudy 63 17.2 47 8.3 56 56 E 16 26 30.32 1027 10 16.0934 0 0
3:52 pm 15:52 Mostly Cloudy 63 17.2 47 8.3 56 56 ENE 15 24 30.32 1027 10 16.0934 0 0
4:52 pm 16:52 Mostly Cloudy 64 17.8 47 8.3 54 54 ENE 13 20 30.32 1027 10 16.0934 0 0
5:52 pm 17:52 Mostly Cloudy 62 16.7 45 7.2 54 54 E 16 26 30.32 1027 10 16.0934 0 0
6:52 pm 18:52 Mostly Cloudy 61 16.1 46 7.8 58 58 E 15 24 30.32 1027 10 16.0934 0 0
7:52 pm 19:52 Mostly Cloudy 58 14.4 45 7.2 62 62 E 17 28 30.35 1028 10 16.0934 0 0
8:52 pm 20:52 Cloudy 57 13.9 46 7.8 67 67 ENE 15 24 30.35 1028 10 16.0934 0 0
9:52 pm 21:52 Mostly Cloudy 55 12.8 44 6.7 67 67 E 16 26 30.35 1028 10 16.0934 0 0
10:52 pm 22:52 Partly Cloudy 53 11.7 45 7.2 74 74 ENE 13 20 30.36 1028 10 16.0934 0 0
11:52 pm 23:52 Partly Cloudy 52 11.1 45 7.2 77 77 ENE 12 19 30.36 1028 10 16.0934 0 0

Powered by AerisWeather